WESTFORD NEEDLES, 18688

Orbit data source: Space-Track

WESTFORD NEEDLES, 18688 is space debris in LEO originally from a launch on Thu, 09 May 1963 UTC launched from the Air Force Western Test Range (AFWTR). Debris objects in space refer to the collection of defunct objects orbiting the Earth. Examples of debris include non-operational satellites, rocket bodies, and fragments generated from explosions, collisions, or faulty payload assembly.

Loading next visibility...
Identifier
18688, 1963-014DM
Orbit
LEO
Country
Flag of USUS
Related business
Manufacturer
Unknown
Mission
Spacecraft
Bus & Motor
Unknown
Mass
Unknown
Launch date (UTC)
1963-05-09 (63 years ago)
Launch vehicle
Unknown
Launch site
Air Force Western Test Range (AFWTR)
Object type
Payload
Rocket body
Debris
Shape & HBR
Unknown shape, 1.1 m
Radar Cross Section
Medium (>0.1 m² and <1 m²)

Expand to show TLE details & history
Last TLE update: 12 hours ago

TLE from 12 hours ago
0 WESTFORD NEEDLES
1 18688U 63014DM  26125.37399581  .00000029  00000-0  12467-1 0  9998
2 18688  87.3608 206.6224 0028530 156.1931 204.0249  8.65107073115635
Epoch: 2026-05-05T08:58Z
TLE epoch observation values (Epoch: 2026-05-05T08:58:33.237Z)
Latitude
-0.00003°
Longitude
-151.26585°
Altitude
3,673.744 km
Speed
6.29 km/s
True Right ascension
13h 46m 29s
True Declination
0° 00' 00"
Sunlit
Object was in full shadow at epoch
Visualization orbit readout
Latitude
Unknown
Longitude
Unknown
Altitude
Unknown
Speed
Unknown
Apparent Right ascension
Unknown
Apparent Declination
Unknown
Sunlit
N/A
Visualization observer readout
Local Sidereal Time
04:46:42
Azimuth
Unknown
Elevation
Unknown
Doppler factor
Unknown
Orbital elements
Apogee altitude
3,671.836 km
Perigee altitude
3,614.654 km
Semi-major axis
10,021.382 km
Eccentricity
0.00285
Inclination
87.3608°
RAAN
206.6224°
Arg. of periapsis
156.1931°
True anomaly
203.89223°
Mean anomaly
204.0249°
Eccentric anomaly
203.95852°
Mean motion
2.16347 °/min
Orbital period
166.4 mins
BSTAR
0.012467
Loading maneuver chart data...
Computing Atmospheric mass density...

Documentation

Showing up to 5 results
|